Home > Weather > Santander > Past weeks

Flag for Spain Past Weather in Santander, Spain — Yesterday and Last 2 Weeks

Now
61 °F

Overcast.


Feels Like: 61 °F
Forecast: 62 / 65 °F
Wind: 6 mph from Northwest

Location: Santander / Parayas

Current Time: Jun 25, 2016 at 12:12:09 AM

Latest Report: Jun 24, 2016 at 11:30 PM


Visibility: 4 mi

Pressure: 30.21 "Hg

Humidity: 94%

Dew Point: 59 °F

Location of SantanderLocation

Past Weather in Santander — Graph

°F

Santander Temperature Yesterday

Maximum temperature yesterday: 70 °F (at 2:30 PM)
Minimum temperature yesterday: 63 °F (at 9:30 PM)
Average temperature yesterday: 66 °F

High & Low Weather Summary for the Past Weeks

 TemperatureHumidityPressure
High77 °F (Jun 22, 3:00 PM)100% (Jun 15, 7:00 AM)30.45 "Hg (Jun 15, 7:00 AM)
Low54 °F (Jun 18, 6:00 AM)46% (Jun 11, 6:00 PM)29.59 "Hg (Jun 15, 10:30 AM)
Average65 °F77%30.04 "Hg
* Reported Jun 9 11:00 PM — Jun 24 11:00 PM, Santander, Weather by CustomWeather, © 2016

Note: Actual official high and low records may vary slightly from our data, if they occured in-between our weather recording intervals... More about our weather records

Advertising

Santander Weather History for the Previous 24 Hours

Scroll right to see more
 ConditionsComfort  
Time TempWeatherWind HumidityBarometerVisibility
11:00 PM
Fri, Jun 24
63 °FOvercast.6 mph77%30.21 "Hg5 mi
10:30 PM63 °FDrizzle. Low clouds.2 mph94%30.21 "Hg4 mi
10:00 PM63 °FLight rain. Fog.3 mph94%30.21 "Hg1 mi
9:30 PM63 °FLight rain. Fog.6 mph94%30.21 "Hg1 mi
9:00 PM64 °FDrizzle. Fog.8 mph88%30.21 "Hg2 mi
8:30 PM64 °FDrizzle. Fog.7 mph88%30.18 "Hg3 mi
8:03 PM64 °FDrizzle. Fog.7 mph88%30.18 "Hg2 mi
7:30 PM66 °FOvercast.6 mph83%30.18 "HgN/A
7:00 PM66 °FOvercast.6 mph83%30.18 "HgN/A
6:30 PM66 °FPartly sunny.6 mph83%30.18 "HgN/A
6:00 PM66 °FPartly sunny.6 mph83%30.18 "HgN/A
5:30 PM66 °FPartly sunny.7 mph88%30.15 "HgN/A
5:00 PM68 °FBroken clouds.6 mph83%30.15 "HgN/A
4:30 PM68 °FBroken clouds.6 mph83%30.18 "HgN/A
4:00 PM68 °FBroken clouds.6 mph83%30.18 "HgN/A
3:30 PM70 °FScattered clouds.7 mph78%30.18 "HgN/A
3:00 PM70 °FScattered clouds.8 mph83%30.15 "HgN/A
2:30 PM70 °FScattered clouds.5 mph78%30.18 "HgN/A
2:00 PM68 °FScattered clouds.7 mph83%30.18 "HgN/A
1:30 PM68 °FBroken clouds.7 mph88%30.18 "HgN/A
1:00 PM68 °FBroken clouds.6 mph88%30.18 "HgN/A
12:30 PM66 °FBroken clouds.6 mph94%30.18 "HgN/A
12:00 PM66 °FBroken clouds.5 mph88%30.18 "HgN/A
11:30 AM66 °FBroken clouds.3 mph88%30.18 "HgN/A
11:00 AM68 °FBroken clouds.1 mph88%30.18 "HgN/A
10:30 AM66 °FBroken clouds.2 mph94%30.18 "HgN/A
10:00 AM66 °FBroken clouds.3 mph88%30.18 "HgN/A
9:30 AM66 °FDrizzle. Broken clouds.5 mph88%30.18 "HgN/A
9:00 AM64 °FDrizzle. Broken clouds.5 mph94%30.18 "Hg4 mi
8:30 AM66 °FDrizzle. Broken clouds.6 mph88%30.18 "Hg4 mi
8:00 AM66 °FPartly sunny.6 mph88%30.18 "HgN/A
7:30 AM66 °FPassing clouds.3 mph88%30.15 "HgN/A
7:00 AM66 °FPassing clouds.2 mph88%30.15 "HgN/A
6:30 AM66 °FPassing clouds.2 mph88%30.15 "HgN/A
6:00 AM66 °FPassing clouds.No wind88%30.15 "HgN/A
5:30 AM66 °FPassing clouds.No wind88%30.15 "HgN/A
5:00 AM66 °FMostly cloudy.No wind88%30.15 "Hg4 mi
4:30 AM66 °FMostly cloudy.No wind88%30.18 "Hg4 mi
4:00 AM66 °FMostly cloudy.1 mph88%30.18 "Hg4 mi
3:30 AM66 °FOvercast.2 mph88%30.18 "Hg4 mi
3:00 AM66 °FLow clouds.2 mph88%30.18 "Hg4 mi
2:30 AM66 °FLow clouds.No wind94%30.18 "Hg4 mi
2:00 AM66 °FMostly cloudy.No wind94%30.18 "Hg4 mi
1:30 AM66 °FOvercast.3 mph88%30.18 "Hg4 mi
1:00 AM66 °FPassing clouds.3 mph88%30.18 "Hg5 mi
12:30 AM66 °FLow clouds.3 mph94%30.18 "Hg5 mi
12:00 AM68 °FLow clouds.5 mph88%30.18 "HgN/A
Weather by CustomWeather, © 2016

See weather overviewHow to use our weather pages